Regional Weather Roundup
Issued by NWS

Home | Current Version | Previous Version | Text Only | Print | Product List | Glossary On
Versions: 1 2 3 4 5 6 7 8 9 10 11 12 13 14 15 16 17 18 19 20 21 22 23 24 25 26 27 28 29 30 31 32 33 34 35 36 37 38 39 40 41 42 43 44 45 46 47 48 49 50
000
ASUS43 KLMK 240210
RWRKY
KENTUCKY REGIONAL WEATHER ROUNDUP
NATIONAL WEATHER SERVICE LOUISVILLE KY
1000 PM EDT THU OCT 23 2014

NOTE "FAIR" INDICATES FEW OR NO CLOUDS BELOW 12,000 FEET
WITH NO SIGNIFICANT WEATHER AND/OR OBSTRUCTIONS TO VISIBILITY.

KYZ001>023-026-027-061>063-070>075-240300-
WESTERN AND SOUTH CENTRAL KENTUCKY

CITY           SKY/WX    TMP DP  RH WIND       PRES   REMARKS
PADUCAH        CLOUDY    51  46  83 CALM      30.14R
HENDERSON      CLOUDY   N/A N/A N/A CALM      30.14R
OWENSBORO      CLOUDY    52  46  79 CALM      30.13F
HOPKINSVILLE   CLOUDY    53  45  76 NE2       30.13F
BOWLING GREEN  CLOUDY    50  44  80 CALM      30.14R
GLASGOW        CLOUDY    47  47 100 CALM      30.14S
$$

KYZ024-025-028>034-038-045-046-053-240300-
NORTH CENTRAL KENTUCKY

CITY           SKY/WX    TMP DP  RH WIND       PRES   REMARKS
LOUISVILLE/SDF CLOUDY    54  45  71 S5        30.13S
LOUISVILLE/LOU CLOUDY    53  45  74 CALM      30.14S
FORT KNOX      CLOUDY    46  42  84 N2        30.12S
$$

KYZ035>037-039>044-047>052-055>060-089>105-240300-
NORTHEAST KENTUCKY

CITY           SKY/WX    TMP DP  RH WIND       PRES   REMARKS
LEXINGTON      CLOUDY    50  42  74 CALM      30.14F
COVINGTON      MOCLDY    45  40  82 E3        30.13F
FRANKFORT      CLOUDY    47  43  86 CALM      30.14R
$$

KYZ054-064>069-076>088-106>120-240300-
SOUTHEAST KENTUCKY

CITY           SKY/WX    TMP DP  RH WIND       PRES   REMARKS
JACKSON        PTCLDY    51  40  65 SE3       30.14S
LONDON         PTCLDY    46  41  82 CALM      30.14S
SOMERSET       CLOUDY    46  43  87 CALM      30.15S
MIDDLESBORO    MOCLDY    46  43  90 CALM      30.15R
MONTICELLO     CLOUDY    43  42  96 CALM      30.15S
$$




USA.gov is the U.S. government's official web portal to all federal, state and local government web resources and services.